Belmar, NJ

7:12 PM EST on February 27, 2017 (GMT -0500)
Allaire

Weather History for KBLM - January, 2013

Change the Weather History Date:

Wednesday, January 23, 2013

  Actual Average Record
Temperature  
Mean Temperature 14 °F -  
Max Temperature 19 °F 34 °F 55 °F (1999)
Min Temperature 10 °F 21 °F 6 °F (2005)
Degree Days  
Heating Degree Days 50    
Moisture  
Dew Point -1 °F    
Average Humidity 53    
Maximum Humidity 79    
Minimum Humidity 36    
Precipitation  
Precipitation 0.00 in - - ()
Sea Level Pressure  
Sea Level Pressure 30.21 in    
Wind  
Wind Speed 10 mph (WNW)    
Max Wind Speed 20 mph    
Max Gust Speed 25 mph    
Visibility 10 miles    
Events      
Averages and records for this station are not official NWS values.
T = Trace of Precipitation, MM = Missing Value Source: NWS Daily Summary

Daily Weather History Graph

Daily Weather History Graph

Search for Another Location

Airport or City:

Trip Planner

Search our weather history database for the weather conditions in past years. The results will help you decide how hot, cold, wet, or windy it might be!

Date:

Astronomy

Jan. 23, 2013 Rise Set
Actual Time 7:12 AM EST 5:04 PM EST
Civil Twilight 6:43 AM EST 5:34 PM EST
Nautical Twilight 6:10 AM EST 6:07 PM EST
Astronomical Twilight 5:38 AM EST 6:39 PM EST
Moon 2:12 PM EST (1/23) 4:21 AM EST (1/23)
Length of Visible Light 10h 50m
Length of Day
9h 52m
Waxing Gibbous, 89% of the Moon is Illuminated
Jan 23
Waxing Gibbous
Jan 26
Full
Feb 3
Last Quarter
Feb 10
New
Feb 17
First Quarter

Hourly Weather History & Observations

Time (EST) Temp. Windchill Dew Point Humidity Pressure Visibility Wind Dir Wind Speed Gust Speed Precip Events Conditions
12:15 AM 12.2 °F -1.8 °F -0.4 °F 57% 30.21 in 10.0 mi WNW 11.5 mph - N/A   Clear
12:35 AM 12.2 °F -2.5 °F -0.4 °F 57% 30.21 in 10.0 mi West 12.7 mph 17.3 mph N/A   Clear
12:55 AM 12.2 °F -1.0 °F -4.0 °F 48% 30.21 in 10.0 mi WNW 10.4 mph 19.6 mph N/A   Clear
1:15 AM 12.2 °F -1.8 °F -2.2 °F 53% 30.21 in 10.0 mi West 11.5 mph - N/A   Clear
1:35 AM 12.2 °F -0.2 °F -5.8 °F 45% 30.22 in 10.0 mi WNW 9.2 mph - N/A   Clear
1:55 AM 12.2 °F -0.2 °F -5.8 °F 45% 30.22 in 10.0 mi West 9.2 mph 16.1 mph N/A   Clear
2:15 AM 12.2 °F -0.2 °F -5.8 °F 45% 30.22 in 10.0 mi West 9.2 mph - N/A   Clear
2:35 AM 12.2 °F -2.5 °F -4.0 °F 48% 30.23 in 10.0 mi West 12.7 mph 18.4 mph N/A   Clear
2:55 AM 12.2 °F -1.8 °F -4.0 °F 48% 30.23 in 10.0 mi WNW 11.5 mph - N/A   Clear
3:15 AM 12.2 °F 0.7 °F -4.0 °F 48% 30.23 in 10.0 mi West 8.1 mph - N/A   Clear
3:35 AM 12.2 °F -0.2 °F -4.0 °F 48% 30.22 in 10.0 mi West 9.2 mph - N/A   Clear
3:55 AM 10.4 °F -2.4 °F -2.2 °F 57% 30.22 in 10.0 mi West 9.2 mph - N/A   Clear
4:15 AM 10.4 °F -1.5 °F -2.2 °F 57% 30.22 in 10.0 mi West 8.1 mph - N/A   Clear
4:35 AM 10.4 °F -2.4 °F -2.2 °F 57% 30.22 in 10.0 mi West 9.2 mph - N/A   Clear
4:55 AM 10.4 °F -1.5 °F -2.2 °F 57% 30.23 in 10.0 mi West 8.1 mph - N/A   Clear
5:15 AM 10.4 °F -0.4 °F -2.2 °F 57% 30.23 in 10.0 mi West 6.9 mph - N/A   Clear
5:35 AM 10.4 °F -2.4 °F -2.2 °F 57% 30.23 in 10.0 mi West 9.2 mph - N/A   Clear
5:55 AM 10.4 °F -1.5 °F -2.2 °F 57% 30.23 in 10.0 mi WNW 8.1 mph - N/A   Clear
6:15 AM 10.4 °F -1.5 °F -2.2 °F 57% 30.24 in 10.0 mi West 8.1 mph - N/A   Clear
6:35 AM 10.4 °F -0.4 °F -2.2 °F 57% 30.23 in 10.0 mi West 6.9 mph - N/A   Clear
7:15 AM 10.4 °F -0.4 °F -0.4 °F 62% 30.25 in 10.0 mi West 6.9 mph - N/A   Clear
7:35 AM 10.4 °F -1.5 °F -0.4 °F 62% 30.25 in 10.0 mi West 8.1 mph - N/A   Clear
7:55 AM 10.4 °F -2.4 °F -0.4 °F 62% 30.25 in 10.0 mi West 9.2 mph - N/A   Clear
8:15 AM 12.2 °F -1.0 °F -0.4 °F 57% 30.25 in 10.0 mi West 10.4 mph - N/A   Clear
8:35 AM 12.2 °F -2.5 °F -0.4 °F 57% 30.26 in 10.0 mi West 12.7 mph - N/A   Clear
8:55 AM 12.2 °F -1.0 °F -0.4 °F 57% 30.26 in 10.0 mi WNW 10.4 mph 18.4 mph N/A   Clear
9:15 AM 15.8 °F 0.9 °F -0.4 °F 49% 30.26 in 10.0 mi West 15.0 mph 19.6 mph N/A   Clear
9:35 AM 15.8 °F 2.7 °F -0.4 °F 49% 30.26 in 10.0 mi West 11.5 mph - N/A   Clear
9:55 AM 15.8 °F 0.9 °F -0.4 °F 49% 30.26 in 10.0 mi West 15.0 mph - N/A   Clear
10:15 AM 17.6 °F 3.2 °F -2.2 °F 42% 30.26 in 10.0 mi West 15.0 mph - N/A   Clear
10:35 AM 17.6 °F 3.7 °F -0.4 °F 45% 30.26 in 10.0 mi West 13.8 mph 20.7 mph N/A   Clear
10:55 AM 17.6 °F 2.7 °F -2.2 °F 42% 30.25 in 10.0 mi West 16.1 mph 20.7 mph N/A   Clear
11:15 AM 17.6 °F 2.2 °F -2.2 °F 42% 30.24 in 10.0 mi WNW 17.3 mph 20.7 mph N/A   Partly Cloudy
11:35 AM 17.6 °F 1.3 °F -0.4 °F 45% 30.23 in 10.0 mi West 19.6 mph 25.3 mph N/A   Mostly Cloudy
11:55 AM 19.4 °F 7.2 °F -2.2 °F 39% 30.22 in 10.0 mi West 11.5 mph 24.2 mph N/A   Mostly Cloudy
12:15 PM 19.4 °F 5.5 °F -0.4 °F 42% 30.21 in 10.0 mi West 15.0 mph - N/A   Overcast
12:35 PM 19.4 °F 5.5 °F -2.2 °F 39% 30.20 in 10.0 mi West 15.0 mph 21.9 mph N/A   Overcast
12:55 PM 19.4 °F 5.0 °F -2.2 °F 39% 30.19 in 10.0 mi WNW 16.1 mph 24.2 mph N/A   Overcast
1:15 PM 19.4 °F 7.2 °F -0.4 °F 42% 30.17 in 10.0 mi WNW 11.5 mph 18.4 mph N/A   Mostly Cloudy
1:35 PM 17.6 °F 5.7 °F -4.0 °F 38% 30.17 in 10.0 mi WNW 10.4 mph 21.9 mph N/A   Mostly Cloudy
1:55 PM 17.6 °F 1.7 °F -2.2 °F 42% 30.18 in 10.0 mi WNW 18.4 mph - N/A   Mostly Cloudy
2:15 PM 19.4 °F 5.5 °F -0.4 °F 42% 30.17 in 10.0 mi West 15.0 mph 21.9 mph N/A   Mostly Cloudy
2:35 PM 19.4 °F 5.5 °F -2.2 °F 39% 30.17 in 10.0 mi WNW 15.0 mph 19.6 mph N/A   Overcast
2:55 PM 19.4 °F 3.6 °F -0.4 °F 42% 30.17 in 10.0 mi West 19.6 mph 25.3 mph N/A   Overcast
3:15 PM 19.4 °F 5.5 °F -4.0 °F 36% 30.18 in 10.0 mi WNW 15.0 mph 18.4 mph N/A   Scattered Clouds
3:35 PM 17.6 °F 5.0 °F -2.2 °F 42% 30.18 in 10.0 mi West 11.5 mph 24.2 mph N/A   Clear
3:55 PM 17.6 °F 5.0 °F -2.2 °F 42% 30.18 in 10.0 mi West 11.5 mph 18.4 mph N/A   Partly Cloudy
4:15 PM 17.6 °F 4.3 °F -0.4 °F 45% 30.18 in 10.0 mi WNW 12.7 mph - N/A   Mostly Cloudy
4:35 PM 17.6 °F 3.2 °F -0.4 °F 45% 30.18 in 10.0 mi NW 15.0 mph - N/A   Overcast
4:55 PM 17.6 °F 7.3 °F 1.4 °F 49% 30.18 in 10.0 mi WNW 8.1 mph - N/A   Overcast
5:15 PM 17.6 °F 7.3 °F -0.4 °F 45% 30.19 in 10.0 mi WNW 8.1 mph - N/A   Mostly Cloudy
5:35 PM 17.6 °F 5.0 °F 1.4 °F 49% 30.20 in 10.0 mi WNW 11.5 mph - N/A   Partly Cloudy
5:55 PM 15.8 °F 6.1 °F 3.2 °F 58% 30.20 in 10.0 mi WNW 6.9 mph - N/A   Clear
6:15 PM 15.8 °F 8.6 °F 3.2 °F 58% 30.21 in 10.0 mi WNW 4.6 mph - N/A   Clear
6:35 PM 15.8 °F 7.2 °F 3.2 °F 58% 30.21 in 10.0 mi WNW 5.8 mph - N/A   Clear
6:55 PM 15.8 °F 7.2 °F 3.2 °F 58% 30.21 in 10.0 mi WNW 5.8 mph - N/A   Clear
7:15 PM 15.8 °F 10.2 °F 1.4 °F 53% 30.20 in 10.0 mi WNW 3.5 mph - N/A   Clear
7:35 PM 14.0 °F 8.2 °F 3.2 °F 62% 30.20 in 10.0 mi WNW 3.5 mph - N/A   Clear
7:55 PM 14.0 °F 8.2 °F 1.4 °F 57% 30.20 in 10.0 mi WNW 3.5 mph - N/A   Clear
8:15 PM 12.2 °F - 3.2 °F 67% 30.20 in 10.0 mi Calm Calm - N/A   Clear
8:35 PM 12.2 °F 6.1 °F 3.2 °F 67% 30.20 in 10.0 mi West 3.5 mph - N/A   Clear
8:55 PM 14.0 °F 8.2 °F 1.4 °F 57% 30.20 in 10.0 mi West 3.5 mph - N/A   Clear
9:15 PM 12.2 °F 6.1 °F 3.2 °F 67% 30.19 in 10.0 mi West 3.5 mph - N/A   Clear
9:35 PM 10.4 °F - 1.4 °F 67% 30.19 in 10.0 mi Calm Calm - N/A   Clear
9:55 PM 12.2 °F 6.1 °F 3.2 °F 67% 30.20 in 10.0 mi West 3.5 mph - N/A   Clear
10:15 PM 12.2 °F 6.1 °F 3.2 °F 67% 30.20 in 10.0 mi West 3.5 mph - N/A   Clear
10:35 PM 12.2 °F 6.1 °F 3.2 °F 67% 30.20 in 10.0 mi West 3.5 mph - N/A   Clear
11:15 PM 10.4 °F - 5.0 °F 79% 30.19 in 10.0 mi Calm Calm - N/A   Overcast
11:35 PM 10.4 °F - 5.0 °F 79% 30.19 in 10.0 mi Calm Calm - N/A   Overcast
11:55 PM 10.4 °F - 5.0 °F 79% 30.19 in 10.0 mi Calm Calm - N/A   Overcast